Regional Weather Roundup
Issued by NWS

Home | Current Version | Previous Version | Text Only | Print | Product List | Glossary On
Versions: 1 2 3 4 5 6 7 8 9 10 11 12 13 14 15 16 17 18 19 20 21 22 23 24 25 26 27 28 29 30 31 32 33 34 35 36 37 38 39 40 41 42 43 44 45 46 47 48 49 50
000
ASUS44 KMEG 200010
RWRTN
TENNESSEE HOURLY STATE WEATHER ROUNDUP
NATIONAL WEATHER SERVICE MEMPHIS TN
700 PM CDT SAT APR 19 2014

TNZ002-004-019-021-049-052-054-088>092-200100-
WEST TENNESSEE

CITY           SKY/WX    TMP DP  RH WIND       PRES   REMARKS
MEMPHIS INTL   PTCLDY    75  42  30 NE9       30.13R
NWS MEMPHIS      N/A     74 N/A N/A MISG        N/A
JACKSON        CLEAR     71  41  33 N7        30.13S
DYERSBURG      CLEAR     73  41  31 N3        30.16R
UNION CITY     CLEAR     68  46  45 N6        30.14S
PARIS          CLEAR     69  38  32 E5        30.15S
LEXINGTON      CLEAR     73  36  25 NE6       30.12S
SAVANNAH       CLEAR     73  40  30 CALM      30.12S
$$

TNZ008-025-027-028-033-062-065-066-200100-
NORTH MIDDLE TENNESSEE

CITY           SKY/WX    TMP DP  RH WIND       PRES   REMARKS
NASHVILLE      PTCLDY    72  40  31 N9        30.14S
DICKSON        CLEAR     72  36  26 NE6       30.15S
PORTLAND         N/A     70  37  30 NE7       30.15S
CLARKSVILLE    CLEAR     68  42  38 E8        30.14F
SMYRNA         CLEAR     71  42  35 N6        30.14S
MURFREESBORO   CLEAR     74  38  27 N8        30.13R
COOKEVILLE     CLEAR     70  41  35 CALM      30.14R
LIVINGSTON     MOCLDY    68  37  31 N7        30.16R
GALLATIN       CLEAR     71  44  37 N6        30.16R
CROSSVILLE     MOCLDY    63  39  41 SE6       30.17R
$$

TNZ061-075-076-078-094-096-097-200100-
SOUTH MIDDLE TENNESSEE

CITY           SKY/WX    TMP DP  RH WIND       PRES   REMARKS
LEWISBURG      CLEAR     69  44  40 N5        30.13R
FAYETTEVILLE   CLEAR     68  41  37 NE9       30.13R
TULLAHOMA      CLEAR     70  36  28 NE5       30.15R
WINCHESTER     CLEAR     68  43  40 N6        30.14R
MCMINNVILLE    CLEAR     70  41  35 N6        30.14R
COLUMBIA       CLEAR     72  50  46 NE5       30.12S
SHELBYVILLE    CLEAR     70  46  43 N5        30.14R
$$

TNZ017-018-042-046-047-200100-
NORTHEAST TENNESSEE

CITY           SKY/WX    TMP DP  RH WIND       PRES   REMARKS
TRI CITIES     CLOUDY    62  38  40 SW6       30.16S
ELIZABETHTON   CLOUDY    63  34  34 CALM      30.17R
$$

TNZ012-013-036-069-073-074-200100-
CENTRAL EAST TENNESSEE

CITY           SKY/WX    TMP DP  RH WIND       PRES   REMARKS
KNOXVILLE      CLOUDY    59  52  77 N3        30.14S
OAK RIDGE      CLOUDY    64  42  44 CALM      30.16S
$$

TNZ083-085-099-200100-
SOUTHEAST TENNESSEE

CITY           SKY/WX    TMP DP  RH WIND       PRES   REMARKS
CHATTANOOGA    CLOUDY    66  42  41 NE7       30.15S
$$

SKY/WX REPORTED AS FAIR MEANS FEW OR NO CLOUDS BELOW
12 THOUSAND FEET.




USA.gov is the U.S. government's official web portal to all federal, state and local government web resources and services.